Weather History for Hurlburt Field, FL

Change the Weather History Date:

Monday, December 17, 2012

  Actual Average Record
Temperature  
Mean Temperature 66 °F -  
Max Temperature 71 °F 60 °F 77 °F (2001)
Min Temperature 60 °F 40 °F 12 °F (2007)
Growing Degree Days 16 (Base 50)    
Moisture  
Dew Point 65 °F    
Average Humidity 100    
Maximum Humidity 100    
Minimum Humidity 94    
Precipitation  
Precipitation 0.23 in - - ()
Sea Level Pressure  
Sea Level Pressure 29.83 in    
Wind  
Wind Speed 7 mph (South)    
Max Wind Speed 18 mph    
Max Gust Speed 25 mph    
Visibility 6 miles    
Events Rain , Thunderstorm    
Averages and records for this station are not official NWS values.
T = Trace of Precipitation, MM = Missing Value Source: NWS Daily Summary

Daily Weather History Graph

Daily Weather History Graph

Search for Another Location

Airport:

Trip Planner

Search our weather history database for the weather conditions in past years. The results will help you decide how hot, cold, wet, or windy it might be!

Date:

Astronomy

Dec. 17, 2012 Rise Set
Actual Time 6:37 AM CST 4:48 PM CST
Civil Twilight 6:11 AM CST 5:15 PM CST
Nautical Twilight 5:41 AM CST 5:45 PM CST
Astronomical Twilight 5:11 AM CST 6:14 PM CST
Moon 10:02 AM CST (12/17) 9:50 PM CST (12/17)
Length of Visible Light 11h 04m
Length of Day
10h 11m
Waxing Crescent, 25% of the Moon is Illuminated
Dec 17
Waxing Crescent
Dec 19
First Quarter
Dec 28
Full
Jan 4
Last Quarter
Jan 11
New

Hourly Weather History & Observations

Time (CST) Temp. Dew Point Humidity Pressure Visibility Wind Dir Wind Speed Gust Speed Precip Events Conditions
12:55 AM 60.8 °F 60.8 °F 100% 29.88 in 3.0 mi East 6.9 mph - N/A   Scattered Clouds
1:03 AM 60.8 °F 60.8 °F 100% 29.88 in 2.5 mi ENE 8.1 mph - N/A   Mostly Cloudy
1:17 AM 60.8 °F 60.8 °F 100% 29.87 in 3.0 mi ENE 8.1 mph - N/A   Mostly Cloudy
1:22 AM 60.8 °F 60.8 °F 100% 29.87 in 2.5 mi ENE 6.9 mph - N/A   Mostly Cloudy
1:39 AM 60.8 °F 60.8 °F 100% 29.86 in 3.0 mi East 8.1 mph - N/A   Scattered Clouds
1:55 AM 61.5 °F 61.0 °F 98% 29.85 in 3.0 mi East 5.8 mph - N/A   Scattered Clouds
2:55 AM 61.7 °F 61.3 °F 99% 29.86 in 4.0 mi East 8.1 mph - N/A   Overcast
3:55 AM 61.5 °F 61.5 °F 100% 29.84 in 3.0 mi ESE 10.4 mph - N/A   Scattered Clouds
4:37 AM 62.6 °F 62.6 °F 100% 29.83 in 9.0 mi SE 4.6 mph - N/A   Mostly Cloudy
4:41 AM 62.6 °F 62.6 °F 100% 29.83 in 9.0 mi SE 5.8 mph - N/A   Mostly Cloudy
4:55 AM 63.3 °F 63.3 °F 100% 29.83 in 9.0 mi SE 8.1 mph - N/A   Scattered Clouds
5:55 AM 64.4 °F 64.4 °F 100% 29.83 in 3.0 mi ESE 4.6 mph - N/A   Scattered Clouds
5:57 AM 64.4 °F 64.4 °F 100% 29.83 in 3.0 mi Variable 6.9 mph - N/A   Mostly Cloudy
6:03 AM 64.4 °F 64.4 °F 100% 29.83 in 3.0 mi SE 10.4 mph - N/A   Mostly Cloudy
6:16 AM 64.4 °F 64.4 °F 100% 29.84 in 3.0 mi SE 4.6 mph - N/A   Light Drizzle
6:20 AM 64.4 °F 64.4 °F 100% 29.84 in 4.0 mi SE 6.9 mph - N/A   Light Drizzle
6:26 AM 64.4 °F 64.4 °F 100% 29.84 in 3.0 mi SE 3.5 mph - N/A   Overcast
6:27 AM 64.4 °F 64.4 °F 100% 29.84 in 3.0 mi SE 3.5 mph - N/A   Overcast
6:29 AM 64.4 °F 64.4 °F 100% 29.84 in 3.0 mi SE 4.6 mph - N/A   Light Drizzle
6:31 AM 64.4 °F 64.4 °F 100% 29.84 in 3.0 mi ESE 4.6 mph - N/A   Light Drizzle
6:37 AM 64.4 °F 64.4 °F 100% 29.84 in 3.0 mi ESE 6.9 mph - N/A   Light Drizzle
6:40 AM 64.4 °F 64.4 °F 100% 29.84 in 2.5 mi ESE 4.6 mph - N/A   Light Drizzle
6:42 AM 64.4 °F 64.4 °F 100% 29.84 in 2.5 mi ESE 4.6 mph - N/A   Overcast
6:45 AM 64.4 °F 64.4 °F 100% 29.84 in 5.0 mi SSE 6.9 mph - N/A   Overcast
6:56 AM 65.8 °F 65.5 °F 99% 29.83 in 7.0 mi SE 5.8 mph - N/A   Overcast
7:26 AM 68.0 °F 68.0 °F 100% 29.83 in 7.0 mi SSE 8.1 mph - N/A   Mostly Cloudy
7:58 AM 70.2 °F 70.0 °F 99% 29.81 in 10.0 mi South 11.5 mph - N/A   Mostly Cloudy
8:59 AM 71.6 °F 71.6 °F 100% 29.83 in 10.0 mi SSW 10.4 mph - N/A   Overcast
9:57 AM 71.6 °F 71.6 °F 100% 29.85 in 10.0 mi SSW 11.5 mph - N/A   Overcast
10:29 AM 71.6 °F 71.6 °F 100% 29.86 in 0.6 mi WNW 18.4 mph 25.3 mph N/A Rain Heavy Rain Showers
10:37 AM 68.0 °F 68.0 °F 100% 29.88 in 1.5 mi WNW 16.1 mph 25.3 mph N/A Rain Light Rain
10:46 AM 66.2 °F 64.4 °F 94% 29.88 in 0.5 mi West 11.5 mph 17.3 mph N/A Rain , Thunderstorm Heavy Thunderstorms and Rain
10:56 AM 62.6 °F 62.6 °F 100% 29.88 in 0.5 mi SW 13.8 mph 23.0 mph N/A Rain , Thunderstorm Heavy Thunderstorms and Rain
11:11 AM 62.6 °F 62.6 °F 100% 29.84 in 3.0 mi SW 15.0 mph 25.3 mph N/A Rain , Thunderstorm Rain Showers
11:55 AM 64.2 °F 64.2 °F 100% 29.82 in 10.0 mi SW 9.2 mph - 0.23 in Rain Light Rain
11:58 AM 64.4 °F 64.4 °F 100% 29.82 in 10.0 mi SW 9.2 mph - N/A   Overcast
12:55 PM 67.1 °F 67.1 °F 100% 29.78 in 10.0 mi SSW 5.8 mph - 0.00 in   Scattered Clouds
1:02 PM 68.0 °F 68.0 °F 100% 29.78 in 10.0 mi SW 5.8 mph - N/A Rain Light Rain
1:20 PM 68.0 °F 68.0 °F 100% 29.78 in 10.0 mi SW 5.8 mph - N/A Rain Light Rain
1:35 PM 68.0 °F 68.0 °F 100% 29.77 in 10.0 mi WSW 3.5 mph - N/A   Mostly Cloudy
1:55 PM 68.2 °F 67.6 °F 98% 29.77 in 10.0 mi Variable 3.5 mph - 0.00 in   Overcast
2:55 PM 68.0 °F 67.6 °F 99% 29.77 in 10.0 mi WSW 6.9 mph - N/A   Clear
3:52 PM 68.0 °F 68.0 °F 100% 29.78 in 10.0 mi SSW 9.2 mph - N/A   Mostly Cloudy
3:54 PM 68.0 °F 68.0 °F 100% 29.78 in 10.0 mi SW 9.2 mph - N/A   Scattered Clouds
3:55 PM 68.4 °F 68.0 °F 99% 29.78 in 10.0 mi SSW 8.1 mph - N/A   Mostly Cloudy
6:56 PM 66.2 °F 66.2 °F 100% 29.81 in 10.0 mi West 6.9 mph - N/A   Mostly Cloudy
7:55 PM 66.2 °F 66.2 °F 100% 29.83 in 10.0 mi WSW 6.9 mph - N/A   Scattered Clouds
8:55 PM 64.4 °F 64.4 °F 100% 29.84 in 10.0 mi WSW 5.8 mph - N/A   Partly Cloudy
9:55 PM 62.4 °F 61.5 °F 97% 29.86 in 10.0 mi WSW 4.6 mph - N/A   Clear
10:55 PM 61.5 °F 61.5 °F 100% 29.86 in 10.0 mi Variable 3.5 mph - N/A   Clear
11:55 PM 60.3 °F 60.3 °F 100% 29.86 in 10.0 mi West 4.6 mph - N/A   Clear